Regional Weather Roundup
Issued by NWS

Home | Current Version | Previous Version | Text Only | Print | Product List | Glossary Off
Versions: 1 2 3 4 5 6 7 8 9 10 11 12 13 14 15 16 17 18 19 20 21 22 23 24 25 26 27 28 29 30 31 32 33 34 35 36 37 38 39 40 41 42 43 44 45 46 47 48 49 50

000
ASUS43 KIND 070209
RWRIN

WEATHER ROUNDUP FOR INDIANA
NATIONAL WEATHER SERVICE INDIANAPOLIS IN
900 PM EST FRI MAR 06 2015

NOTE: "FAIR" INDICATES FEW OR NO CLOUDS BELOW 12,000 FEET WITH NO
SIGNIFICANT WEATHER AND/OR OBSTRUCTIONS TO VISIBILITY.

* - STATION DOES NOT REPORT WEATHER SUCH AS PRECIPITATION OR FOG.

+ - STATION NOT QUALITY CONTROLLED BY THE NATIONAL WEATHER SERVICE.
    USE DATA WITH CAUTION...ESPECIALLY DEWPOINT AND RELATIVE
    HUMIDITY OBSERVATIONS.

INZ001>003-010>013-019-020-070300-
NORTHWEST INDIANA

CITY           SKY/WX    TMP DP  RH WIND       PRES   REMARKS
GARY /AIRPORT/ CLEAR     25  12  58 SW9G28    30.21F WCI  15
KNOX *+          N/A     23   0  36 SW14      30.22F WCI  11
LA PORTE +     MOCLDY    24  14  66 SW15      30.21F WCI  11
MICHIGAN CITY+ CLEAR     23  10  58 S15G22    30.21F WCI  10
MONTICELLO +   CLEAR     23  12  62 SW10      30.26F WCI  12
RENSSELAER +   CLEAR     21  14  73 S16       30.24F WCI   7
VALPARAISO     CLEAR     20  12  71 SW14      30.22F WCI   7

$$

LMZ046-743>745-070300-
SOUTHERN LAKE MICHIGAN

STATION/POSITION TIME  TEMP WIND        PRES
                       AIR  DIR/SP/G
                 (UTC) (F)  (DEG/KT/KT) (MB)
MICHIGAN CITY    0200   23  180/ 16/ 22   N/A

$$

INZ004-005-014>016-021>024-070300-
NORTH CENTRAL INDIANA

CITY           SKY/WX    TMP DP  RH WIND       PRES   REMARKS
ELKHART        CLEAR     21   7  53 S7        30.22F WCI  13
GOSHEN         CLEAR     21   9  59 S13       30.22S WCI   9
LOGANSPORT +   CLEAR     23  12  63 SW15      30.27F WCI  10
PERU/GRISSOM   CLEAR     21  11  63 SW16      30.25F WCI   7
ROCHESTER +    CLEAR     27  12  54 SW9       30.25S WCI  17
SOUTH BEND     CLEAR     23  11  60 SW14      30.21F WCI  11

$$

INZ006>009-017-018-025>027-070300-
NORTHEAST INDIANA

CITY           SKY/WX    TMP DP  RH WIND       PRES   REMARKS
ANGOLA *+      CLEAR     18   5  57 SW7       30.21S WCI   8
AUBURN +       CLEAR     23  12  63 S6        30.24F WCI  16
FORT WAYNE     CLEAR     19  11  70 SW13      30.26F WCI   6
HUNTINGTON +   CLEAR     22   8  55 SW9       30.26S WCI  11

$$

INZ028-029-035-036-043>045-051>053-070300-
WEST CENTRAL INDIANA

CITY           SKY/WX    TMP DP  RH WIND       PRES   REMARKS
CRAWFORDSVL +  CLEAR     20   7  56 S13       30.30F WCI   7
GREENCASTLE +  CLEAR     25   5  42 S7        30.31F WCI  17
LAFAYETTE      CLEAR     22  10  60 SW7       30.29F WCI  13
TERRE HAUTE    CLEAR     22  10  60 S8        30.34F WCI  12

$$

INZ030>032-037>040-046>048-054>057-064-065-070300-
CENTRAL INDIANA

CITY           SKY/WX    TMP DP  RH WIND       PRES   REMARKS
CP ATTERBURY + CLEAR     28   9  43 SW8       30.35S WCI  20
COLUMBUS       CLEAR     25  10  54 S10       30.36  WCI  15
FRANKFORT +    CLEAR     21  13  71 S9        30.29F WCI  11
INDIANAPOLIS   CLEAR     24   7  48 SW13      30.30F WCI  12
-EAGLE CREEK   CLEAR     25   7  46 SW7       30.30F WCI  17
KOKOMO *+        N/A    N/A N/A N/A MISG        N/A
MARION +       CLEAR     22  12  66 SW12      30.28S WCI  10
MT COMFORT *+  CLEAR     23   5  46 S8        30.31S WCI  14
SHELBYVILLE    CLEAR     26  13  57 S15       30.33S WCI  14
ZIONSVILLE +   CLEAR     26   6  43 SW14G23   30.29F WCI  14

$$

INZ033-034-041-042-049-050-058-059-070300-
EAST CENTRAL INDIANA

CITY           SKY/WX    TMP DP  RH WIND       PRES   REMARKS
MUNCIE         CLEAR     24  12  60 SW15G21   30.28S WCI  11

$$

INZ060-061-067>069-081>083-085>088-070300-
SOUTHWEST INDIANA

CITY           SKY/WX    TMP DP  RH WIND       PRES   REMARKS
EVANSVILLE     CLEAR     29  10  45 S10       30.42S WCI  20
HUNTINGBURG *+ CLEAR     23  10  58 S8        30.40S WCI  14
WASHINGTON +   CLEAR     24   9  53 S6        30.37S WCI  17

$$

INZ062-063-066-070>080-084-089>092-070300-
SOUTH CENTRAL AND SOUTHEAST INDIANA

CITY           SKY/WX    TMP DP  RH WIND       PRES   REMARKS
BEDFORD +      CLEAR     25   7  46 S5        30.36S WCI  19
BLOOMINGTON    CLEAR     25   5  42 S9        30.34S WCI  15
NORTH VERNON + CLEAR     27  10  50 S10       30.37S WCI  17
SEYMOUR +      CLEAR     25  12  58 S7        30.37S WCI  17

$$



USA.gov is the U.S. government's official web portal to all federal, state and local government web resources and services.